{"data":{"norad_id":53855,"intl_designator":"2022-114AP","name":"STARLINK-4703","alt_names":[],"object_type":"PAYLOAD","status":"ACTIVE","operator":null,"country":"US","launch_date":"2022-09-19","launch_site_code":"AFETR","launch_vehicle":null,"mission":null,"orbit_class":"UNKNOWN","rcs_meters":null,"size_class":null,"mass_kg":null,"dimensions":null,"purposes":["comms"],"wikipedia_slug":null,"has_3d_model":false,"image_url":null,"decayed_at":null,"tle_current":{"epoch":"2026-09-20T03:44:23.828640Z","epoch_age_seconds":113853,"freshness":"FRESH","line1":"1 53855U 22114AP  26263.15583135 -.00000414  00000+0 -15675-5 0  9995","line2":"2 53855  53.1586 125.4515 0001169  84.9771 275.1363 15.31699669222549","mean_motion":15.31699669,"eccentricity":0.0001169,"inclination_deg":53.1586,"raan_deg":125.4515,"arg_perigee_deg":84.9771,"mean_anomaly_deg":275.1363,"bstar":-1.5675e-6,"rev_number":22254,"period_min":94.013208277321,"perigee_km":469.94034808351,"apogee_km":471.54161575569,"semimajor_km":6848.8779819196,"source":"CELESTRAK","updated_at":"2026-09-21T09:00:33.024091Z"}}}